TimeEST,TemperatureF,Dew PointF,Humidity,Sea Level PressureIn,VisibilityMPH,Wind Direction,Wind SpeedMPH,Gust SpeedMPH,PrecipitationIn,Events,Conditions,WindDirDegrees,DateUTC
12:54 AM,12.0,8.1,84,30.41,10.0,SE,4.6,-,N/A,,Partly Cloudy,140,2013-02-10 05:54:00
1:54 AM,10.9,7.0,84,30.41,10.0,SE,4.6,-,N/A,,Partly Cloudy,140,2013-02-10 06:54:00
2:54 AM,8.6,5.0,85,30.35,10.0,ESE,4.6,-,N/A,,Partly Cloudy,120,2013-02-10 07:54:00
3:54 AM,8.1,3.9,83,30.39,10.0,ESE,5.8,-,N/A,,Partly Cloudy,120,2013-02-10 08:54:00
4:54 AM,8.1,3.9,83,30.37,10.0,ESE,9.2,-,N/A,,Partly Cloudy,110,2013-02-10 09:54:00
5:54 AM,9.0,3.9,80,30.37,10.0,SE,5.8,-,N/A,,Partly Cloudy,130,2013-02-10 10:54:00
6:54 AM,8.1,3.9,83,30.37,10.0,ESE,5.8,-,N/A,,Scattered Clouds,120,2013-02-10 11:54:00
7:54 AM,10.0,5.0,80,30.38,10.0,SE,4.6,-,N/A,,Scattered Clouds,130,2013-02-10 12:54:00
8:54 AM,14.0,8.1,77,30.38,10.0,SE,4.6,-,N/A,,Scattered Clouds,130,2013-02-10 13:54:00
9:54 AM,19.0,12.0,74,30.35,10.0,ESE,6.9,-,N/A,,Mostly Cloudy,110,2013-02-10 14:54:00
10:54 AM,25.0,17.1,72,30.31,10.0,East,3.5,-,N/A,,Mostly Cloudy,100,2013-02-10 15:54:00
11:54 AM,32.0,19.9,61,30.27,10.0,ENE,6.9,-,N/A,,Mostly Cloudy,70,2013-02-10 16:54:00
12:54 PM,34.0,23.0,64,30.24,10.0,ENE,5.8,-,N/A,,Mostly Cloudy,70,2013-02-10 17:54:00
1:54 PM,37.0,24.1,59,30.21,10.0,NNE,3.5,-,N/A,,Mostly Cloudy,30,2013-02-10 18:54:00
2:54 PM,37.9,24.1,57,30.17,10.0,NNE,8.1,-,N/A,,Mostly Cloudy,30,2013-02-10 19:54:00
3:54 PM,37.0,28.0,70,30.16,10.0,NE,5.8,-,N/A,,Scattered Clouds,50,2013-02-10 20:54:00
4:54 PM,34.0,27.0,75,30.13,10.0,ENE,9.2,-,N/A,,Mostly Cloudy,60,2013-02-10 21:54:00
5:54 PM,34.0,26.1,73,30.11,10.0,ENE,4.6,-,N/A,,Overcast,70,2013-02-10 22:54:00
6:54 PM,36.0,25.0,64,30.08,10.0,East,5.8,-,N/A,,Overcast,90,2013-02-10 23:54:00
7:54 PM,39.9,21.9,49,30.05,10.0,SSE,6.9,-,N/A,,Overcast,150,2013-02-11 00:54:00
8:54 PM,41.0,19.9,43,30.02,10.0,SSE,13.8,-,N/A,,Overcast,150,2013-02-11 01:54:00
9:54 PM,39.9,19.9,45,29.99,10.0,SSE,9.2,-,N/A,,Overcast,150,2013-02-11 02:54:00
10:54 PM,39.0,21.9,50,29.98,10.0,South,6.9,-,N/A,,Overcast,180,2013-02-11 03:54:00
11:54 PM,39.9,21.9,49,29.93,10.0,SE,9.2,-,0.00,Rain,Light Rain,130,2013-02-11 04:54:00